This is the latest recevied weather packets stored in our database for station/object WX7FGZ-5. If no packets are shown the sender has not sent any weather packets the latest 10 day(s).
| Time | Temp. | Humidity | Pressure | Rain* | Wind** | Luminosity | Snow |
|---|---|---|---|---|---|---|---|
| 1777502524 | 17.78° C | 17% | 1021.3 hPa | 0 mm | - | 712 W/m² | - |
| 1777501026 | 17.22° C | 16% | 1021.8 hPa | 0 mm | - | 780 W/m² | - |
| 1777500764 | 17.22° C | 16% | 1021.8 hPa | 0 mm | - | 810 W/m² | - |
| 1777500720 | 17.78° C | 16% | 1021.7 hPa | 0 mm | - | 793 W/m² | - |
| 1777500413 | 17.22° C | 16% | 1021.8 hPa | 0 mm | - | 810 W/m² | - |
| 1777499514 | 17.78° C | 16% | 1021.6 hPa | 0 mm | - | 847 W/m² | - |
| 1777499221 | 17.78° C | 16% | 1021.8 hPa | 0 mm | - | 858 W/m² | - |
| 1777498915 | 17.78° C | 16% | 1021.8 hPa | 0 mm | - | 872 W/m² | - |
| 1777498335 | 17.22° C | 16% | 1021.9 hPa | 0 mm | - | 893 W/m² | - |
| 1777498013 | 17.78° C | 16% | 1022 hPa | 0 mm | - | 904 W/m² | - |
| 1777495922 | 17.78° C | 17% | 1022.3 hPa | 0 mm | - | 997 W/m² | - |
| 1777495616 | 17.22° C | 17% | 1022.3 hPa | 0 mm | - | 979 W/m² | - |
| 1777495317 | 17.22° C | 18% | 1022.2 hPa | 0 mm | - | 981 W/m² | - |
| 1777494724 | 16.67° C | 18% | 1022.2 hPa | 0 mm | - | 993 W/m² | - |
| 1777494417 | 17.22° C | 19% | 1022.1 hPa | 0 mm | - | 1002 W/m² | - |
| 1777494119 | 16.67° C | 18% | 1021.9 hPa | 0 mm | - | 1007 W/m² | - |
| 1777493817 | 16.67° C | 18% | 1022.2 hPa | 0 mm | - | 1013 W/m² | - |
| 1777493216 | 16.67° C | 19% | 1022.3 hPa | 0 mm | - | 1025 W/m² | - |
| 1777492917 | 16.67° C | 20% | 1022.4 hPa | 0 mm | - | 1025 W/m² | - |
| 1777491421 | 17.22° C | 21% | 1022.8 hPa | 0 mm | - | 1030 W/m² | - |
| 1777491116 | 16.67° C | 19% | 1022.8 hPa | 0 mm | - | 1032 W/m² | - |
| 1777490516 | 16.11° C | 23% | 1023 hPa | 0 mm | - | 1030 W/m² | - |
| 1777490218 | 15.56° C | 21% | 1023.1 hPa | 0 mm | - | 1030 W/m² | - |
| 1777489322 | 15.56° C | 21% | 1023.3 hPa | 0 mm | - | 1037 W/m² | - |
| 1777488718 | 16.67° C | 21% | 1023.5 hPa | 0 mm | - | 1034 W/m² | - |
* Rain latest hour (hover to see other rain measurements)
** Current wind speed in m/s (hover to see current wind gust speed)